GW4049 Weather Reports


time (UTC)temp
F
wind
direction
speed
knots
gust
knots
rain 1hr
in
rain 24hr
in
rain mn
in
humidity
%
barometer
mb
20260504043806 46 253 2.6 2.6 0.00 0.00 0.00 37 1021.6
20260504043303 46 252 1.7 6.1 0.00 0.00 0.00 37 1021.8
20260504042801 46 255 2.6 5.2 0.00 0.00 0.00 38 1021.8
20260504042257 45 248 1.7 3.5 0.00 0.00 0.00 38 1021.6
20260504041753 46 194 1.7 1.7 0.00 0.00 0.00 38 1022.0
20260504041249 46 256 0.9 2.6 0.00 0.00 0.00 38 1021.8
20260504040745 46 249 1.7 2.6 0.00 0.00 0.00 38 1021.9
20260504040243 46 215 1.7 5.2 0.00 0.00 0.00 38 1021.8
20260504035739 46 213 1.7 3.5 0.00 0.00 0.00 38 1021.9
20260504035236 46 247 2.6 5.2 0.00 0.00 0.00 38 1021.8
20260504034734 46 229 2.6 5.2 0.00 0.00 0.00 38 1021.8
20260504034231 46 255 0.9 2.6 0.00 0.00 0.00 38 1021.9
20260504033729 46 256 1.7 2.6 0.00 0.00 0.00 39 1021.9
20260504033226 47 257 0.9 5.2 0.00 0.00 0.00 38 1021.8
20260504032723 47 242 4.3 5.2 0.00 0.00 0.00 37 1021.9
20260504032220 47 261 7.0 7.8 0.00 0.00 0.00 37 1021.9
20260504031716 47 249 2.6 5.2 0.00 0.00 0.00 37 1021.6
20260504031214 47 228 4.3 6.1 0.00 0.00 0.00 37 1022.0
20260504030709 48 229 4.3 8.7 0.00 0.00 0.00 36 1021.9
20260504030207 48 233 7.8 12.2 0.00 0.00 0.00 35 1021.8
20260504025703 47 225 3.5 5.2 0.00 0.00 0.00 36 1021.8
20260504025200 47 196 1.7 7.8 0.00 0.00 0.00 37 1021.8
20260504024657 47 219 6.1 7.8 0.00 0.00 0.00 36 1021.9
20260504024153 47 243 6.1 9.6 0.00 0.00 0.00 36 1021.6
20260504023650 47 255 3.5 7.8 0.00 0.00 0.00 36 1021.6
20260504023146 47 238 2.6 3.5 0.00 0.00 0.00 39 1021.9
20260504022643 47 225 2.6 5.2 0.00 0.00 0.00 39 1021.8
20260504022138 46 213 6.1 7.8 0.00 0.00 0.00 40 1021.8
20260504021637 46 271 5.2 7.0 0.00 0.00 0.00 41 1021.8
20260504021133 46 290 2.6 7.0 0.00 0.00 0.00 43 1021.5
20260504020630 46 291 1.7 7.0 0.00 0.00 0.00 44 1021.4
20260504020126 46 263 2.6 6.1 0.00 0.00 0.00 44 1021.6
20260504015623 47 230 3.5 11.3 0.00 0.00 0.00 41 1021.5
20260504015119 48 241 1.7 3.5 0.00 0.00 0.00 40 1021.6
20260504014615 48 298 0.9 5.2 0.00 0.00 0.00 39 1021.5
20260504014113 48 267 2.6 7.8 0.00 0.00 0.00 39 1021.8
20260504013610 48 263 1.7 6.1 0.00 0.00 0.00 39 1021.8
20260504013107 49 242 3.5 7.8 0.00 0.00 0.00 38 1021.6
20260504012604 49 304 3.5 7.0 0.00 0.00 0.00 36 1021.5
20260504012102 50 330 1.7 2.6 0.00 0.00 0.00 36 1021.6
20260504011559 50 260 0.0 1.7 0.00 0.00 0.00 37 1021.6
20260504011055 50 262 0.0 1.7 0.00 0.00 0.00 35 1021.6
20260504010550 50 244 0.9 3.5 0.00 0.00 0.00 35 1021.5
20260504010047 50 280 0.9 5.2 0.00 0.00 0.00 34 1021.4
20260504005543 51 256 6.1 7.8 0.00 0.00 0.00 34 1021.5
20260504005041 51 229 1.7 3.5 0.00 0.00 0.00 33 1021.5
20260504004539 51 278 0.0 2.6 0.00 0.00 0.00 32 1021.4
20260504004036 52 321 5.2 6.1 0.00 0.00 0.00 30 1021.4
20260504003532 52 323 2.6 3.5 0.00 0.00 0.00 32 1021.2
20260504003029 53 289 2.6 5.2 0.00 0.00 0.00 30 1021.4
20260504002525 52 312 6.1 13.9 0.00 0.00 0.00 30 1021.4
20260504002023 53 283 10.4 13.0 0.00 0.00 0.00 30 1021.5
20260504001521 53 235 5.2 11.3 0.00 0.00 0.00 30 1021.2
20260504001016 53 286 1.7 7.8 0.00 0.00 0.00 30 1021.1
20260504000514 53 291 3.5 5.2 0.00 0.00 0.00 29 1021.2
20260504000011 53 316 1.7 2.6 0.00 0.00 0.00 31 1021.1
20260503235509 53 295 2.6 11.3 0.00 0.00 0.00 32 1021.4
20260503235006 52 331 7.0 8.7 0.00 0.00 0.00 32 1021.4
20260503234503 53 279 7.0 9.6 0.00 0.00 0.00 31 1021.2
20260503234002 52 331 5.2 8.7 0.00 0.00 0.00 33 1021.2
20260503233457 53 332 7.8 9.6 0.00 0.00 0.00 32 1021.6
20260503232954 52 283 6.1 13.0 0.00 0.00 0.00 33 1021.6
20260503232451 55 100 6.1 14.8 0.00 0.00 0.00 31 1021.5
20260503231949 54 327 7.8 8.7 0.00 0.00 0.00 26 1021.5
20260503231446 54 331 3.5 8.7 0.00 0.00 0.00 28 1021.5
20260503230942 54 267 3.5 9.6 0.00 0.00 0.00 28 1021.6
20260503230439 56 273 2.6 3.5 0.00 0.00 0.00 27 1021.5
20260503225937 55 327 5.2 7.0 0.00 0.00 0.00 27 1021.5
20260503225433 54 282 4.3 5.2 0.00 0.00 0.00 27 1021.5
20260503224929 55 276 7.8 11.3 0.00 0.00 0.00 27 1021.5
20260503224426 56 257 6.1 12.2 0.00 0.00 0.00 27 1021.4
20260503223924 54 328 3.5 7.0 0.00 0.00 0.00 29 1021.6
20260503223422 54 292 7.8 13.9 0.00 0.00 0.00 28 1021.6
20260503222917 53 321 2.6 6.1 0.00 0.00 0.00 29 1021.6
20260503222416 54 264 2.6 7.0 0.00 0.00 0.00 29 1021.6
20260503221914 53 221 2.6 6.1 0.00 0.00 0.00 29 1021.9
20260503221412 53 237 7.0 9.6 0.00 0.00 0.00 27 1022.0
20260503220908 53 279 3.5 7.0 0.00 0.00 0.00 31 1022.1
20260503220404 53 243 0.9 7.0 0.00 0.00 0.00 29 1022.3
20260503215901 53 290 5.2 7.0 0.00 0.00 0.00 28 1022.3
20260503215358 53 270 2.6 7.8 0.00 0.00 0.00 28 1022.4
20260503214856 53 260 2.6 7.8 0.00 0.00 0.00 29 1022.1
20260503214353 53 252 4.3 5.2 0.00 0.00 0.00 29 1022.3
20260503213850 52 268 0.0 1.7 0.00 0.00 0.00 29 1022.4
20260503213348 53 235 2.6 7.0 0.00 0.00 0.00 29 1022.4
20260503212845 54 269 0.0 0.9 0.00 0.00 0.00 28 1022.8
20260503212343 53 296 2.6 6.1 0.00 0.00 0.00 28 1022.7
20260503211839 54 216 4.3 7.8 0.00 0.00 0.00 29 1022.7
20260503211336 55 326 2.6 6.1 0.00 0.00 0.00 27 1022.5
20260503210831 54 94 3.5 5.2 0.00 0.00 0.00 25 1022.8
20260503210329 55 290 3.5 6.1 0.00 0.00 0.00 25 1022.7
20260503205824 55 290 1.7 2.6 0.00 0.00 0.00 26 1022.9
20260503205321 55 296 0.9 3.5 0.00 0.00 0.00 25 1022.9
20260503204817 54 195 1.7 5.2 0.00 0.00 0.00 26 1023.1
20260503204315 52 264 0.9 5.2 0.00 0.00 0.00 28 1023.3
20260503203812 54 242 3.5 12.2 0.00 0.00 0.00 27 1023.3
20260503203309 53 13 0.9 2.6 0.00 0.00 0.00 28 1023.1
20260503202806 53 253 0.9 5.2 0.00 0.00 0.00 26 1023.3
20260503202304 52 273 1.7 3.5 0.00 0.00 0.00 28 1023.7
20260503201802 52 325 5.2 11.3 0.00 0.00 0.00 28 1023.5
20260503201259 53 346 6.1 7.8 0.00 0.00 0.00 28 1023.3
20260503200756 53 1 6.1 11.3 0.00 0.00 0.00 28 1023.5
20260503200251 53 308 6.1 12.2 0.00 0.00 0.00 28 1023.3
20260503195743 53 267 1.7 7.8 0.00 0.00 0.00 29 1023.3
20260503195240 53 272 0.9 5.2 0.00 0.00 0.00 26 1023.7
20260503194738 53 300 4.3 11.3 0.00 0.00 0.00 27 1023.5
20260503194233 54 259 5.2 9.6 0.00 0.00 0.00 26 1023.5
20260503193729 54 249 2.6 7.8 0.00 0.00 0.00 24 1023.9
20260503193226 53 242 1.7 2.6 0.00 0.00 0.00 26 1023.5
20260503192721 52 217 3.5 5.2 0.00 0.00 0.00 26 1023.7
20260503192217 53 271 2.6 6.1 0.00 0.00 0.00 26 1023.7
20260503191714 52 266 1.7 7.8 0.00 0.00 0.00 29 1023.7
20260503191211 53 291 2.6 3.5 0.00 0.00 0.00 29 1024.0
20260503190708 53 248 5.2 7.8 0.00 0.00 0.00 28 1024.0
20260503190204 52 311 1.7 3.5 0.00 0.00 0.00 27 1024.1
20260503185702 53 294 2.6 8.7 0.00 0.00 0.00 26 1024.4
20260503185156 52 233 4.3 8.7 0.00 0.00 0.00 26 1023.9
20260503184651 53 258 1.7 9.6 0.00 0.00 0.00 28 1024.3
20260503184148 52 294 2.6 5.2 0.00 0.00 0.00 29 1024.6
20260503183644 53 224 3.5 5.2 0.00 0.00 0.00 27 1024.4
20260503183142 53 220 5.2 6.1 0.00 0.00 0.00 28 1024.6
20260503182640 53 290 4.3 5.2 0.00 0.00 0.00 28 1024.8
20260503182139 53 278 2.6 5.2 0.00 0.00 0.00 28 1024.6
20260503181635 53 250 0.9 2.6 0.00 0.00 0.00 29 1024.6
20260503181132 52 244 1.7 2.6 0.00 0.00 0.00 29 1024.5
20260503180629 51 230 2.6 9.6 0.00 0.00 0.00 29 1024.6
20260503180127 52 264 0.9 3.5 0.00 0.00 0.00 30 1025.0
20260503175623 51 319 4.3 6.1 0.00 0.00 0.00 30 1025.0
20260503175120 51 288 2.6 5.2 0.00 0.00 0.00 31 1024.8
20260503174617 51 254 0.9 2.6 0.00 0.00 0.00 30 1025.0
20260503174114 50 257 1.7 7.8 0.00 0.00 0.00 31 1025.2
20260503173609 50 254 2.6 8.7 0.00 0.00 0.00 30 1025.2
20260503173106 50 266 1.7 7.0 0.00 0.00 0.00 30 1025.3
20260503172603 50 312 1.7 5.2 0.00 0.00 0.00 31 1025.2
20260503172100 50 242 2.6 7.8 0.00 0.00 0.00 29 1025.6
20260503171556 50 301 5.2 7.8 0.00 0.00 0.00 29 1025.4
20260503171054 50 256 1.7 7.0 0.00 0.00 0.00 30 1025.4
20260503170550 49 250 1.7 5.2 0.00 0.00 0.00 30 1025.4
20260503150943 45 311 2.6 12.2 0.00 0.00 0.00 38 1025.3
20260503150439 45 271 6.1 11.3 0.00 0.00 0.00 37 1025.8
20260503131332 43 257 1.7 2.6 0.00 0.00 0.00 37 1026.1
20260503130830 43 269 1.7 2.6 0.00 0.00 0.00 37 1025.8
20260503130327 43 248 0.0 5.2 0.00 0.00 0.00 37 1026.0
20260503110721 42 245 5.2 7.0 0.00 0.00 0.00 36 1025.3
20260503110218 43 228 2.6 6.1 0.00 0.00 0.00 36 1025.2
20260503100144 41 237 6.1 9.6 0.00 0.00 0.00 39 1025.3
20260503081533 43 248 0.9 7.8 0.00 0.00 0.00 41 1025.7
20260503081030 42 204 3.5 5.2 0.00 0.00 0.00 43 1026.0
20260503080526 42 250 6.1 7.8 0.00 0.00 0.00 42 1026.0
20260503072500 43 211 5.2 7.8 0.00 0.00 0.00 42 1026.6
20260503071957 43 231 3.5 5.2 0.00 0.00 0.00 43 1026.5
20260503071454 42 262 5.2 6.1 0.00 0.00 0.00 42 1026.6
20260503070949 42 234 1.7 5.2 0.00 0.00 0.00 43 1026.6
20260503070447 43 250 0.0 5.2 0.00 0.00 0.00 42 1026.8
20260503054900 41 227 1.7 2.6 0.00 0.00 0.00 31 1027.1
20260503054356 42 231 1.7 2.6 0.00 0.00 0.00 31 1026.9
20260503053854 41 243 2.6 3.5 0.00 0.00 0.00 31 1026.8
20260503053352 42 224 1.7 3.5 0.00 0.00 0.00 34 1026.9
20260503052848 41 217 1.7 2.6 0.00 0.00 0.00 31 1026.5
20260503052345 42 225 2.6 3.5 0.00 0.00 0.00 31 1026.9
20260503051841 42 218 1.7 3.5 0.00 0.00 0.00 31 1026.8
20260503051338 42 202 3.5 3.5 0.00 0.00 0.00 31 1026.5
20260503050835 42 193 2.6 3.5 0.00 0.00 0.00 31 1026.6
20260503050331 41 222 1.7 3.5 0.00 0.00 0.00 31 1026.5
20260503045829 41 204 2.6 3.5 0.00 0.00 0.00 30 1026.8
20260503045326 40 222 1.7 3.5 0.00 0.00 0.00 32 1026.6
20260503044822 40 215 1.7 2.6 0.00 0.00 0.00 36 1026.6
20260503044320 39 204 2.6 3.5 0.00 0.00 0.00 34 1026.8